Temp
22 22 22 22 22 22 22 22 22 21 21 21 21 21 20 20 20 20 20 19 19 19 19 19 20 20 19 20 20 20 20 20 19 19 21 22 22 22 21 21 21 21 21
23 23 23 23 23 22 22 22 22 22 21 21 21 21 21 21 20 20 20 20 20 20 20 19 20 20 20 20 20 20 20 20 20 21 21 22 22 22 22 22 21 21 21
23 24 23 23 23 23 23 23 23 22 21 21 21 21 21 21 21 20 20 20 20 20 20 20 20 20 20 20 21 20 20 20 20 20 21 21 22 22 23 22 22 22 21
24 24 24 24 24 24 23 23 23 23 22 22 21 22 21 22 21 21 21 20 20 21 21 21 20 20 20 21 20 21 21 21 21 21 21 20 20 22 22 23 22 22 22
24 24 25 25 24 24 24 24 23 23 23 22 22 21 22 21 22 22 21 21 21 21 21 21 21 21 21 21 21 21 21 21 21 20 19 20 20 19 20 21 19 20 21
24 25 26 25 25 24 24 24 24 24 23 23 22 22 21 22 22 22 22 22 22 22 22 22 22 22 22 22 22 22 21 21 21 20 19 19 19 20 19 19 18 18 19
25 25 25 25 25 25 25 24 24 24 23 23 23 22 22 22 22 23 23 22 22 23 23 23 23 23 23 23 23 22 22 21 21 21 20 21 21 21 20 20 18 18 18
25 25 25 25 25 25 25 24 24 24 24 23 23 23 22 23 23 23 23 23 22 23 23 23 23 23 23 23 23 22 22 22 22 22 22 22 21 20 19 19 18 18 18
25 26 25 25 25 24 24 25 24 24 24 24 24 23 23 24 24 24 23 23 23 23 23 23 23 23 23 23 23 22 22 22 22 22 22 22 21 20 19 19 18 18 18
26 27 26 26 26 26 25 25 25 25 24 24 24 24 24 24 24 24 23 23 23 24 24 24 24 23 23 23 22 22 22 21 20 21 20 20 20 20 20 20 20 19 19
25 26 27 27 27 26 26 25 25 25 24 24 24 24 24 24 24 24 23 23 22 23 23 22 23 23 22 22 21 21 20 20 20 19 19 19 19 20 20 20 20 20 19
25 25 26 26 26 25 25 24 24 24 24 24 24 24 24 24 24 24 24 23 23 22 22 22 22 22 22 21 20 20 20 20 19 19 19 20 20 20 20 19 19 18 18
25 25 25 25 25 24 25 24 24 24 23 24 24 24 24 25 25 25 24 24 23 22 22 22 21 21 21 20 20 20 20 19 19 19 19 20 20 20 19 19 18 18 17
23 24 24 24 24 24 24 23 23 24 24 22 22 22 24 25 25 25 25 24 24 23 23 22 21 20 20 20 21 21 21 20 20 20 19 20 20 19 19 18 18 17 16
21 22 22 23 23 23 23 23 24 22 22 23 23 22 23 24 25 25 24 24 24 24 23 22 21 20 21 21 21 21 21 20 20 20 19 20 19 19 18 17 16 15 15
19 19 20 19 21 22 22 23 23 22 25 25 23 21 24 24 23 23 23 23 23 21 21 21 21 21 21 21 21 21 20 20 20 20 19 19 18 18 17 18 16 14 16
19 19 21 21 19 21 24 23 24 24 24 23 23 22 23 23 22 21 21 22 21 21 20 20 20 21 21 20 20 20 19 19 19 19 18 18 19 18 17 14 14 15 14
18 21 20 23 20 19 21 22 22 22 22 22 22 23 23 22 22 20 20 21 20 20 20 20 20 20 20 20 20 19 19 19 19 18 18 18 18 17 14 13 13 13 13
18 17 16 16 17 19 20 21 21 21 20 20 21 21 21 21 20 20 20 20 19 19 19 19 19 19 19 19 19 19 18 18 18 18 18 18 17 16 13 13 13 14 14
17 17 18 18 19 19 20 20 20 20 20 20 20 20 21 21 20 20 20 19 19 19 19 19 19 19 19 19 18 18 18 18 18 18 18 17 16 15 13 13 13 13 13
18 18 18 20 19 18 19 20 20 20 20 20 19 19 19 19 19 20 20 20 20 20 20 20 19 19 18 18 17 17 17 17 17 17 17 16 14 13 13 13 13 13 12
18 18 18 18 18 18 19 19 20 20 20 20 19 18 18 18 18 18 18 18 18 18 19 19 18 18 17 17 17 16 16 16 16 16 15 14 13 13 13 13 13 12 13
17 17 17 16 17 15 17 17 19 19 20 20 19 17 17 17 17 17 16 16 16 16 16 16 15 16 16 15 14 14 14 14 14 14 14 13 13 13 13 13 12 12 12
14 15 15 13 14 14 15 15 17 17 18 18 17 17 16 16 16 15 14 14 14 14 13 12 12 12 12 13 13 13 14 14 13 13 13 13 13 13 13 12 12 12 12
11 12 13 13 14 14 14 14 15 16 16 15 15 15 15 15 15 14 13 13 12 12 12 12 12 12 12 12 12 13 13 13 13 13 13 13 13 12 13 12 12 12 13
9 9 10 11 11 12 13 13 14 14 14 14 14 14 14 13 13 12 12 11 11 11 11 11 11 11 11 11 12 12 12 12 12 13 13 13 13 13 13 13 12 12 12
Height
1522 1529 1536 1541 1546 1551 1556 1560 1565 1570 1573 1576 1579 1582 1585 1587 1589 1591 1592 1594 1595 1597 1599 1601 1602 1604 1605 1606 1607 1607 1607 1607 1606 1605 1603 1604 1603 1602 1601 1599 1598 1596 1594
1514 1521 1527 1534 1539 1544 1549 1554 1559 1563 1568 1571 1574 1577 1580 1583 1585 1586 1588 1590 1592 1593 1595 1596 1598 1600 1601 1602 1602 1602 1603 1603 1602 1599 1600 1598 1597 1597 1596 1594 1592 1589 1588
1505 1512 1519 1525 1530 1536 1541 1547 1552 1557 1561 1565 1568 1571 1574 1577 1579 1582 1584 1586 1587 1589 1590 1592 1593 1595 1596 1597 1597 1597 1597 1597 1596 1595 1592 1592 1590 1589 1587 1585 1583 1581 1579
1495 1502 1508 1515 1521 1528 1534 1540 1545 1549 1554 1558 1561 1564 1568 1571 1574 1576 1578 1581 1582 1583 1585 1587 1588 1590 1591 1592 1592 1592 1592 1592 1591 1588 1586 1584 1583 1582 1578 1577 1575 1573 1570
1484 1491 1498 1506 1514 1520 1526 1532 1537 1542 1547 1551 1555 1558 1561 1564 1567 1569 1572 1574 1576 1577 1579 1581 1582 1584 1585 1586 1587 1587 1587 1586 1585 1583 1580 1578 1576 1576 1574 1572 1567 1565 1562
1475 1482 1490 1497 1504 1510 1517 1523 1529 1534 1539 1543 1547 1550 1553 1556 1559 1562 1566 1568 1570 1571 1572 1574 1576 1577 1578 1579 1580 1580 1581 1580 1578 1576 1574 1571 1568 1568 1567 1565 1563 1558 1554
1467 1475 1481 1488 1495 1502 1509 1514 1519 1525 1531 1534 1539 1542 1545 1547 1551 1554 1558 1561 1562 1563 1565 1567 1568 1569 1570 1571 1572 1572 1572 1573 1572 1571 1564 1563 1560 1562 1561 1556 1554 1550 1546
1460 1468 1474 1480 1487 1493 1499 1505 1511 1517 1522 1527 1531 1534 1537 1539 1542 1546 1550 1553 1554 1555 1556 1558 1559 1561 1562 1563 1564 1563 1562 1562 1562 1561 1557 1553 1554 1552 1551 1548 1544 1540 1536
1454 1460 1466 1472 1479 1485 1490 1496 1503 1508 1514 1518 1522 1526 1528 1530 1534 1538 1541 1543 1544 1544 1546 1548 1549 1550 1553 1555 1555 1553 1551 1550 1552 1549 1547 1547 1546 1544 1543 1540 1536 1533 1526
1445 1452 1459 1467 1473 1478 1485 1491 1496 1502 1507 1511 1514 1517 1520 1522 1526 1529 1532 1534 1533 1534 1536 1537 1538 1540 1543 1545 1544 1544 1539 1540 1542 1540 1538 1534 1535 1535 1537 1535 1531 1527 1524
1441 1448 1454 1461 1467 1474 1480 1484 1489 1494 1498 1501 1505 1508 1511 1513 1516 1519 1522 1523 1524 1526 1526 1527 1529 1531 1534 1535 1535 1534 1532 1535 1534 1531 1529 1528 1528 1528 1528 1527 1525 1522 1516
1437 1443 1449 1456 1462 1467 1472 1477 1482 1486 1490 1494 1497 1499 1501 1504 1508 1511 1513 1515 1517 1517 1518 1520 1520 1522 1524 1525 1526 1525 1526 1527 1525 1524 1522 1521 1521 1521 1519 1517 1514 1510 1506
1434 1439 1445 1450 1456 1460 1464 1469 1474 1478 1482 1485 1488 1491 1494 1497 1500 1503 1506 1507 1509 1509 1510 1512 1513 1515 1516 1516 1517 1519 1519 1518 1517 1516 1514 1514 1514 1512 1510 1508 1505 1503 1499
1430 1435 1441 1445 1449 1454 1458 1463 1466 1470 1474 1477 1479 1482 1486 1490 1492 1495 1497 1499 1500 1501 1502 1503 1505 1506 1507 1508 1509 1510 1510 1510 1509 1508 1507 1507 1505 1504 1502 1500 1497 1494 1491
1428 1434 1438 1441 1444 1448 1452 1455 1458 1461 1465 1469 1474 1478 1479 1482 1484 1488 1491 1492 1494 1496 1498 1497 1497 1499 1500 1501 1501 1502 1501 1501 1501 1501 1499 1499 1498 1497 1495 1493 1491 1488 1485
1427 1430 1433 1440 1445 1444 1446 1449 1452 1456 1454 1462 1468 1471 1473 1476 1479 1481 1483 1485 1487 1489 1489 1489 1490 1493 1494 1494 1494 1493 1494 1494 1494 1494 1493 1492 1491 1490 1488 1487 1485 1483 1479
1428 1432 1432 1431 1453 1446 1444 1447 1447 1451 1453 1457 1461 1464 1466 1468 1473 1474 1476 1477 1479 1481 1482 1483 1484 1486 1486 1486 1486 1486 1487 1487 1488 1487 1486 1485 1484 1483 1482 1482 1480 1478 1477
1428 1414 1432 1432 1454 1455 1443 1440 1442 1445 1449 1451 1454 1457 1460 1462 1465 1467 1469 1470 1473 1474 1476 1477 1478 1479 1479 1479 1480 1480 1481 1481 1480 1479 1478 1478 1478 1478 1478 1478 1476 1475 1473
1430 1445 1456 1450 1450 1439 1435 1437 1438 1440 1443 1445 1448 1451 1453 1455 1458 1461 1463 1465 1468 1469 1470 1471 1472 1473 1473 1474 1473 1474 1474 1473 1473 1473 1473 1473 1473 1472 1473 1473 1472 1470 1469
1438 1442 1441 1438 1435 1435 1437 1437 1435 1435 1437 1441 1444 1447 1449 1452 1454 1456 1458 1460 1461 1463 1464 1465 1466 1467 1467 1467 1467 1467 1467 1467 1467 1467 1467 1467 1467 1467 1468 1468 1467 1466 1464
1423 1424 1425 1427 1430 1434 1434 1435 1435 1433 1434 1437 1442 1445 1447 1449 1450 1451 1453 1454 1457 1458 1458 1459 1460 1460 1460 1460 1460 1461 1461 1461 1461 1461 1461 1461 1462 1463 1463 1462 1461 1461 1461
1418 1419 1421 1425 1429 1432 1432 1433 1433 1433 1432 1433 1437 1441 1444 1446 1447 1448 1448 1448 1449 1449 1451 1451 1452 1452 1453 1453 1454 1454 1454 1455 1455 1455 1456 1456 1457 1457 1457 1457 1457 1456 1457
1416 1417 1420 1424 1425 1428 1430 1431 1431 1431 1429 1429 1431 1436 1440 1442 1443 1444 1444 1445 1445 1445 1445 1446 1446 1446 1446 1447 1448 1448 1449 1450 1451 1452 1452 1453 1453 1453 1454 1454 1453 1452 1451
1415 1417 1420 1423 1424 1426 1428 1427 1426 1427 1427 1426 1426 1428 1433 1437 1439 1440 1441 1442 1443 1443 1443 1443 1442 1442 1442 1442 1443 1444 1445 1446 1447 1449 1449 1450 1449 1449 1449 1449 1450 1449 1449
1412 1412 1414 1416 1417 1419 1420 1421 1421 1421 1423 1424 1424 1424 1427 1430 1433 1436 1438 1440 1441 1442 1442 1442 1442 1440 1439 1438 1438 1439 1440 1441 1442 1444 1446 1446 1447 1447 1446 1445 1444 1445 1445
1408 1407 1411 1413 1414 1413 1414 1415 1416 1416 1416 1418 1422 1423 1424 1428 1430 1433 1434 1437 1439 1440 1439 1440 1439 1437 1437 1437 1437 1437 1437 1438 1439 1439 1440 1442 1442 1441 1442 1442 1442 1441 1441
Wind_Speed
46 47 45 44 42 38 35 31 31 28 24 22 22 23 23 22 21 21 19 18 17 17 17 17 16 16 15 16 17 17 18 19 22 19 21 21 19 18 18 20 21 23 25
46 46 46 43 41 40 37 34 31 30 27 24 24 26 25 24 24 23 22 20 20 19 17 17 17 17 18 18 19 20 21 22 24 29 27 29 28 25 26 27 28 30 30
49 47 47 46 44 41 39 36 34 32 30 27 27 27 28 28 28 26 25 23 22 22 20 20 19 19 19 19 21 24 24 25 27 30 33 32 35 33 34 33 34 35 37
48 48 48 47 45 42 39 37 34 33 32 30 29 30 29 29 29 29 28 27 27 26 25 24 24 23 24 22 23 23 24 27 29 32 35 33 33 34 39 39 40 39 39
46 45 45 43 43 43 42 38 34 33 32 32 32 31 31 32 31 32 31 31 31 30 28 27 26 25 24 23 24 24 24 26 27 27 28 30 31 28 32 35 34 36 38
45 44 40 40 40 40 40 39 37 34 33 34 35 34 33 35 35 33 33 34 33 33 33 31 29 28 27 27 27 28 29 31 33 34 31 32 40 39 36 35 32 33 37
44 40 39 39 39 38 36 38 39 37 35 36 36 36 36 36 36 35 34 36 37 36 36 35 34 34 32 32 32 32 33 34 36 38 44 45 48 45 45 46 39 40 40
42 39 38 38 37 35 36 37 36 37 36 35 36 36 37 37 36 36 36 37 40 40 40 39 39 39 38 37 37 39 41 41 41 41 45 48 46 45 41 40 40 41 42
39 39 38 37 36 36 36 36 35 35 35 36 35 36 37 36 35 33 34 37 41 42 42 42 42 42 40 40 41 43 44 44 41 41 40 40 39 37 32 29 32 35 42
38 38 37 33 30 30 30 31 31 32 32 33 34 35 35 34 32 31 31 34 38 40 41 42 42 42 40 39 39 39 42 40 37 36 36 35 31 26 23 25 29 34 38
38 38 37 35 35 33 30 31 32 33 33 33 34 33 33 32 32 31 31 34 37 37 37 36 35 33 29 28 29 31 34 29 28 26 29 30 30 30 29 29 29 32 37
35 37 34 31 30 30 30 30 30 30 30 30 29 29 29 26 25 25 25 28 28 31 32 31 31 28 24 23 24 25 23 23 26 29 32 32 30 30 32 32 33 35 35
25 27 25 26 27 27 27 28 28 28 29 29 29 28 26 23 23 24 24 26 27 30 30 30 28 26 23 21 19 19 21 25 26 27 29 30 29 32 33 32 30 25 26
24 25 25 25 25 26 25 25 26 27 29 29 27 27 24 24 24 22 22 23 24 27 27 28 27 26 25 24 23 23 26 27 27 29 31 30 30 29 29 28 28 30 25
21 23 23 24 25 26 26 24 27 27 25 26 26 24 23 24 23 17 17 20 21 22 21 25 27 26 25 26 26 28 29 27 26 23 24 27 28 27 28 30 26 23 19
17 15 17 11 21 24 23 25 25 26 21 24 26 25 23 24 23 19 21 21 20 20 23 26 26 24 23 23 25 24 24 23 21 22 23 25 27 28 27 25 18 14 15
8 11 13 9 8 16 20 20 18 18 20 22 24 24 24 24 19 18 18 19 20 20 24 25 24 23 22 22 22 21 19 19 22 24 24 26 24 22 20 13 11 9 7
10 8 7 15 25 24 15 14 14 14 15 17 19 21 23 24 21 19 19 20 21 21 20 22 23 25 22 21 21 20 22 23 24 23 20 19 18 17 12 9 7 6 7
10 15 11 12 15 7 5 7 9 11 12 14 13 14 15 17 18 19 18 20 23 23 23 23 22 21 20 21 22 23 23 22 19 17 17 17 16 15 10 8 8 11 10
6 8 7 4 2 2 4 6 7 10 12 12 13 14 14 16 15 13 16 21 19 20 19 19 20 21 21 22 22 20 19 17 16 16 16 16 15 13 11 10 9 12 9
6 4 4 3 3 5 6 8 7 7 9 12 15 15 16 18 20 18 20 18 18 20 20 19 20 22 22 20 19 18 17 16 16 15 14 13 11 11 12 13 13 12 8
11 9 9 11 11 12 11 12 11 10 10 10 13 17 18 19 19 20 20 22 22 21 20 20 21 21 20 19 18 16 15 13 12 10 9 10 11 11 11 9 11 10 11
16 15 14 15 16 16 16 15 14 14 13 13 13 15 18 18 19 19 19 19 19 19 18 18 18 19 18 16 14 12 11 10 9 9 9 9 9 8 8 8 8 9 10
16 17 18 15 14 15 15 14 18 17 16 17 15 17 20 19 18 18 17 16 16 16 16 16 15 14 13 12 12 12 11 10 9 8 7 7 9 10 11 9 9 10 10
14 13 14 18 18 18 21 21 20 18 18 17 18 20 21 21 20 20 18 15 14 15 13 13 12 12 13 12 11 10 9 10 11 11 9 8 8 10 11 11 11 14 14
6 8 10 11 14 15 18 21 21 21 20 20 22 22 22 21 21 19 17 14 15 15 14 14 14 13 11 9 8 7 6 7 9 11 11 11 11 11 13 13 12 14 15
Wind_Direction
223 224 223 226 229 231 233 234 236 237 238 238 234 232 231 228 229 235 242 248 251 252 251 250 250 252 258 260 260 262 266 268 273 279 286 292 289 287 286 285 282 283 282
223 224 224 226 230 233 234 235 234 235 235 237 236 233 232 230 230 235 240 246 248 247 248 253 255 259 260 261 263 264 267 271 275 282 285 287 289 287 286 285 285 284 282
223 225 228 230 231 232 235 236 235 232 233 234 236 235 233 234 234 235 237 241 242 245 249 254 257 262 264 265 268 269 272 275 278 281 285 287 289 291 291 288 286 285 284
221 224 227 229 231 233 236 236 234 232 234 234 236 236 236 236 236 235 235 238 241 244 246 250 256 259 262 262 267 271 273 273 277 279 282 283 285 288 290 292 292 293 293
221 222 226 229 232 233 236 235 232 231 234 237 238 239 238 237 236 235 235 237 241 243 246 248 251 253 258 260 262 265 269 274 276 275 277 281 281 283 288 296 292 295 296
221 221 224 227 228 230 232 234 234 231 233 236 238 238 239 240 239 237 237 240 242 244 246 249 251 254 252 255 259 262 267 273 276 278 276 277 283 290 290 290 289 291 293
220 220 221 223 225 226 227 231 233 233 234 237 238 239 239 240 241 240 239 242 245 247 249 252 254 256 257 260 262 263 265 266 270 276 279 279 283 287 291 293 290 290 290
217 219 220 220 222 222 224 227 231 234 235 236 239 241 242 241 241 241 242 243 247 250 252 254 257 259 261 264 267 270 271 273 274 272 273 278 282 286 288 290 293 292 291
215 221 221 219 219 220 223 225 227 230 232 235 237 240 241 242 242 242 243 245 248 250 253 256 257 259 261 263 267 271 273 274 276 276 276 278 281 283 285 286 285 290 294
214 218 218 215 216 218 220 222 226 230 235 238 240 241 241 242 242 242 241 244 248 251 252 254 258 261 264 266 267 270 272 274 279 282 284 288 289 286 287 285 292 289 292
211 213 215 216 217 219 222 225 227 229 233 236 239 242 243 242 243 241 240 242 246 251 254 257 258 261 262 263 263 263 267 278 279 276 278 282 288 292 293 291 291 295 296
214 217 220 222 222 222 223 225 227 230 233 237 238 240 240 237 234 234 233 238 244 250 255 260 263 266 267 264 263 266 268 271 269 270 273 278 284 288 292 298 300 302 297
212 215 214 214 215 219 219 220 222 224 227 229 233 236 239 242 240 236 236 239 243 249 253 258 264 267 264 257 259 271 271 267 269 271 273 279 284 290 293 295 295 291 294
210 210 209 210 208 212 216 218 221 223 224 226 227 229 232 238 242 238 235 236 237 243 250 255 258 258 256 257 260 266 268 270 273 276 276 281 287 288 289 295 298 302 301
201 203 207 210 208 209 212 216 222 222 226 229 235 233 232 236 239 241 241 240 240 244 252 252 252 251 253 258 265 269 272 271 269 270 273 277 281 285 292 297 300 303 306
144 161 179 206 226 211 215 218 220 229 229 240 242 239 239 244 249 240 236 236 234 233 237 244 248 249 258 262 266 269 271 271 273 275 276 279 283 287 289 295 302 305 311
142 153 138 120 256 236 201 209 214 226 233 236 236 239 241 246 243 242 235 230 230 234 240 249 251 257 259 261 263 265 268 272 276 278 280 286 287 286 288 291 298 310 315
102 65 311 221 254 241 206 206 215 228 238 243 242 243 244 244 240 234 230 228 230 233 243 246 251 257 258 259 262 266 273 276 278 278 279 282 281 280 281 282 282 282 314
104 162 210 203 219 206 201 210 216 224 231 242 245 242 238 231 227 225 229 235 238 239 245 246 249 251 255 260 264 268 271 271 273 271 273 274 274 276 269 262 262 284 305
177 197 209 193 181 205 229 236 226 222 224 233 233 227 222 216 212 232 238 240 236 240 244 248 251 257 260 263 264 265 266 267 268 269 269 269 268 267 255 251 261 264 286
295 269 259 252 258 278 266 256 240 220 216 227 244 246 237 225 222 219 218 222 229 236 243 246 254 259 257 256 258 260 262 263 264 265 266 266 263 256 256 263 272 253 249
282 272 258 250 253 269 273 260 257 242 226 226 230 242 240 238 238 235 226 220 221 223 228 236 243 247 249 252 255 256 257 259 259 257 258 260 259 263 263 261 264 260 238
280 270 264 268 255 259 258 255 252 248 238 230 228 235 237 237 234 235 234 231 232 234 234 237 240 246 251 253 254 249 246 247 250 256 255 257 256 249 242 252 253 245 242
268 261 262 271 268 255 251 247 246 244 238 230 224 224 229 231 237 240 237 236 238 245 245 246 241 241 241 238 234 244 242 240 241 241 252 261 259 257 258 254 251 247 241
270 265 263 264 258 254 247 248 245 242 241 235 227 218 220 224 230 233 233 238 253 241 232 217 215 220 222 218 219 221 227 227 228 235 245 256 256 266 276 264 255 261 249
299 270 269 265 253 243 243 240 235 232 226 218 220 222 226 225 225 216 210 219 221 224 213 206 197 194 193 195 197 204 215 233 237 237 242 247 252 262 266 264 258 265 257